Monett, MO

8:57 PM CDT on August 23, 2017 (GMT -0500)
Monett

Weather History for KHFJ - December, 2013

Change the Weather History Date:

Wednesday, December 18, 2013

  Actual Average (KJLN) Record (KJLN)
Temperature  
Mean Temperature 46 °F -  
Max Temperature 60 °F 47 °F 69 °F (2002)
Min Temperature 32 °F 27 °F -2 °F (2016)
Degree Days  
Heating Degree Days 19    
Moisture  
Dew Point 31 °F    
Average Humidity 58    
Maximum Humidity 87    
Minimum Humidity 34    
Precipitation  
Precipitation 0.00 in - - ()
Sea Level Pressure  
Sea Level Pressure 30.07 in    
Wind  
Wind Speed 12 mph (South)    
Max Wind Speed 26 mph    
Max Gust Speed 32 mph    
Visibility 10 miles    
Events      
Averages and records for this station are not official NWS values.
T = Trace of Precipitation, MM = Missing Value Source: NWS Daily Summary

Daily Weather History Graph

Daily Weather History Graph

Search for Another Location

Airport or City:

Trip Planner

Search our weather history database for the weather conditions in past years. The results will help you decide how hot, cold, wet, or windy it might be!

Date:

Astronomy

Dec. 18, 2013 Rise Set
Actual Time 7:23 AM CST 5:01 PM CST
Civil Twilight 6:54 AM CST 5:30 PM CST
Nautical Twilight 6:22 AM CST 6:03 PM CST
Astronomical Twilight 5:50 AM CST 6:35 PM CST
Moon 6:32 PM CST (12/18) 8:05 AM CST (12/18)
Length of Visible Light 10h 36m
Length of Day
9h 38m
Full, 98% of the Moon is Illuminated
Dec 18
Full
Dec 25
Last Quarter
Jan 1
New
Jan 7
First Quarter
Jan 15
Full

Hourly Weather History & Observations

Time (CST) Temp. Windchill Dew Point Humidity Pressure Visibility Wind Dir Wind Speed Gust Speed Precip Events Conditions
12:15 AM 33.8 °F 27.0 °F 26.6 °F 75% 30.26 in 10.0 mi ESE 8.1 mph - N/A   Clear
12:35 AM 33.8 °F 27.7 °F 26.6 °F 75% 30.25 in 10.0 mi ESE 6.9 mph - N/A   Clear
12:55 AM 32.0 °F 24.8 °F 26.6 °F 80% 30.25 in 10.0 mi ESE 8.1 mph - N/A   Clear
1:15 AM 32.0 °F 24.8 °F 26.6 °F 80% 30.24 in 10.0 mi SE 8.1 mph - N/A   Clear
1:35 AM 32.0 °F 26.4 °F 26.6 °F 80% 30.23 in 10.0 mi SE 5.8 mph - N/A   Clear
1:55 AM 32.0 °F 25.6 °F 26.6 °F 80% 30.23 in 10.0 mi SE 6.9 mph - N/A   Clear
2:15 AM 32.0 °F 24.8 °F 26.6 °F 80% 30.23 in 10.0 mi SE 8.1 mph - N/A   Clear
2:35 AM 33.8 °F 27.7 °F 26.6 °F 75% 30.23 in 10.0 mi SE 6.9 mph - N/A   Clear
2:55 AM 33.8 °F 27.7 °F 26.6 °F 75% 30.23 in 10.0 mi SE 6.9 mph - N/A   Clear
3:15 AM 33.8 °F 28.6 °F 26.6 °F 75% 30.22 in 10.0 mi SE 5.8 mph - N/A   Clear
3:35 AM 33.8 °F 27.0 °F 26.6 °F 75% 30.22 in 10.0 mi SE 8.1 mph - N/A   Clear
3:55 AM 33.8 °F 27.7 °F 26.6 °F 75% 30.21 in 10.0 mi SE 6.9 mph - N/A   Clear
4:15 AM 32.0 °F 24.8 °F 26.6 °F 80% 30.21 in 10.0 mi SE 8.1 mph - N/A   Clear
4:35 AM 32.0 °F 25.6 °F 26.6 °F 80% 30.20 in 10.0 mi SE 6.9 mph - N/A   Clear
4:55 AM 32.0 °F 24.2 °F 28.4 °F 87% 30.20 in 10.0 mi ESE 9.2 mph - N/A   Clear
5:15 AM 32.0 °F 23.6 °F 28.4 °F 87% 30.19 in 10.0 mi SE 10.4 mph - N/A   Clear
5:35 AM 32.0 °F 24.2 °F 28.4 °F 87% 30.19 in 10.0 mi SE 9.2 mph - N/A   Clear
5:55 AM 33.8 °F 25.8 °F 28.4 °F 81% 30.18 in 10.0 mi SE 10.4 mph - N/A   Clear
6:15 AM 33.8 °F 25.8 °F 26.6 °F 75% 30.18 in 10.0 mi SE 10.4 mph - N/A   Clear
6:35 AM 33.8 °F 25.8 °F 26.6 °F 75% 30.17 in 10.0 mi SE 10.4 mph - N/A   Clear
6:55 AM 33.8 °F 26.4 °F 26.6 °F 75% 30.17 in 10.0 mi SE 9.2 mph - N/A   Clear
7:15 AM 33.8 °F 25.8 °F 26.6 °F 75% 30.17 in 10.0 mi SE 10.4 mph - N/A   Clear
7:35 AM 33.8 °F 25.8 °F 26.6 °F 75% 30.16 in 10.0 mi ESE 10.4 mph - N/A   Clear
7:55 AM 33.8 °F 25.8 °F 26.6 °F 75% 30.16 in 10.0 mi SE 10.4 mph - N/A   Clear
8:15 AM 35.6 °F 28.0 °F 26.6 °F 70% 30.16 in 10.0 mi SE 10.4 mph - N/A   Clear
8:35 AM 39.2 °F 32.0 °F 26.6 °F 61% 30.15 in 10.0 mi SSE 11.5 mph - N/A   Clear
8:55 AM 41.0 °F 34.7 °F 28.4 °F 61% 30.15 in 10.0 mi SSE 10.4 mph - N/A   Clear
9:15 AM 44.6 °F 39.2 °F 30.2 °F 57% 30.15 in 10.0 mi South 10.4 mph - N/A   Clear
9:35 AM 48.2 °F - 32.0 °F 54% 30.15 in 10.0 mi South 10.4 mph 16.1 mph N/A   Clear
9:55 AM 51.8 °F - 32.0 °F 47% 30.14 in 10.0 mi South 20.7 mph - N/A   Clear
10:15 AM 53.6 °F - 32.0 °F 44% 30.14 in 10.0 mi South 19.6 mph 25.3 mph N/A   Clear
10:35 AM 53.6 °F - 32.0 °F 44% 30.14 in 10.0 mi South 20.7 mph 28.8 mph N/A   Clear
10:55 AM 53.6 °F - 32.0 °F 44% 30.13 in 10.0 mi SSW 18.4 mph 26.5 mph N/A   Clear
11:15 AM 53.6 °F - 33.8 °F 47% 30.12 in 10.0 mi South 17.3 mph - N/A   Clear
11:35 AM 55.4 °F - 33.8 °F 44% 30.10 in 10.0 mi SSW 21.9 mph 31.1 mph N/A   Clear
11:55 AM 57.2 °F - 33.8 °F 41% 30.08 in 10.0 mi SSW 20.7 mph 32.2 mph N/A   Clear
12:15 PM 59.0 °F - 33.8 °F 39% 30.07 in 10.0 mi SSW 19.6 mph 28.8 mph N/A   Clear
12:35 PM 59.0 °F - 33.8 °F 39% 30.05 in 10.0 mi SSW 23.0 mph 31.1 mph N/A   Clear
12:55 PM 60.8 °F - 33.8 °F 36% 30.04 in 10.0 mi SSW 21.9 mph 28.8 mph N/A   Clear
1:15 PM 60.8 °F - 33.8 °F 36% 30.03 in 10.0 mi SSW 26.5 mph 32.2 mph N/A   Clear
1:35 PM 60.8 °F - 32.0 °F 34% 30.02 in 10.0 mi SSW 18.4 mph 29.9 mph N/A   Clear
1:55 PM 60.8 °F - 32.0 °F 34% 30.00 in 10.0 mi SSW 21.9 mph 31.1 mph N/A   Clear
2:15 PM 60.8 °F - 32.0 °F 34% 30.00 in 10.0 mi SSW 19.6 mph 32.2 mph N/A   Clear
2:35 PM 60.8 °F - 32.0 °F 34% 29.99 in 10.0 mi SSW 18.4 mph 27.6 mph N/A   Clear
2:55 PM 60.8 °F - 32.0 °F 34% 29.99 in 10.0 mi South 20.7 mph 29.9 mph N/A   Clear
3:15 PM 59.0 °F - 32.0 °F 36% 29.99 in 10.0 mi SSW 15.0 mph 26.5 mph N/A   Clear
3:35 PM 59.0 °F - 32.0 °F 36% 29.98 in 10.0 mi South 13.8 mph 19.6 mph N/A   Clear
3:55 PM 57.2 °F - 33.8 °F 41% 29.97 in 10.0 mi South 13.8 mph 19.6 mph N/A   Clear
4:15 PM 55.4 °F - 33.8 °F 44% 29.97 in 10.0 mi SSW 20.7 mph 27.6 mph N/A   Clear
4:35 PM 55.4 °F - 33.8 °F 44% 29.96 in 10.0 mi South 16.1 mph 23.0 mph N/A   Clear
4:55 PM 55.4 °F - 33.8 °F 44% 29.95 in 10.0 mi South 15.0 mph 19.6 mph N/A   Clear
5:15 PM 53.6 °F - 33.8 °F 47% 29.94 in 10.0 mi South 11.5 mph - N/A   Clear
5:35 PM 53.6 °F - 35.6 °F 51% 29.94 in 10.0 mi South 17.3 mph - N/A   Clear
5:55 PM 53.6 °F - 35.6 °F 51% 29.93 in 10.0 mi South 15.0 mph - N/A   Clear
6:15 PM 51.8 °F - 35.6 °F 54% 29.93 in 10.0 mi South 16.1 mph - N/A   Clear
6:35 PM 51.8 °F - 35.6 °F 54% 29.93 in 10.0 mi South 12.7 mph 19.6 mph N/A   Clear
6:55 PM 53.6 °F - 35.6 °F 51% 29.93 in 10.0 mi South 16.1 mph 21.9 mph N/A   Clear
7:15 PM 53.6 °F - 35.6 °F 51% 29.93 in 10.0 mi South 16.1 mph 20.7 mph N/A   Clear
7:35 PM 53.6 °F - 35.6 °F 51% 29.93 in 10.0 mi South 11.5 mph 18.4 mph N/A   Clear
7:55 PM 51.8 °F - 35.6 °F 54% 29.93 in 10.0 mi South 12.7 mph - N/A   Clear
8:15 PM 53.6 °F - 35.6 °F 51% 29.93 in 10.0 mi South 19.6 mph 25.3 mph N/A   Clear
8:35 PM 51.8 °F - 35.6 °F 54% 29.93 in 10.0 mi South 17.3 mph 23.0 mph N/A   Clear
8:55 PM 51.8 °F - 35.6 °F 54% 29.92 in 10.0 mi South 18.4 mph 25.3 mph N/A   Clear
9:15 PM 51.8 °F - 35.6 °F 54% 29.92 in 10.0 mi South 16.1 mph - N/A   Clear
9:35 PM 51.8 °F - 35.6 °F 54% 29.92 in 10.0 mi South 16.1 mph - N/A   Clear
9:55 PM 51.8 °F - 35.6 °F 54% 29.92 in 10.0 mi South 19.6 mph 23.0 mph N/A   Clear
10:15 PM 51.8 °F - 35.6 °F 54% 29.92 in 10.0 mi South 17.3 mph 23.0 mph N/A   Clear
10:35 PM 51.8 °F - 37.4 °F 58% 29.93 in 10.0 mi SSW 15.0 mph 20.7 mph N/A   Clear
10:55 PM 51.8 °F - 37.4 °F 58% 29.92 in 10.0 mi South 16.1 mph - N/A   Clear
11:15 PM 51.8 °F - 37.4 °F 58% 29.92 in 10.0 mi SSW 16.1 mph 25.3 mph N/A   Clear
11:35 PM 50.0 °F - 37.4 °F 62% 29.92 in 10.0 mi South 15.0 mph - N/A   Clear
11:55 PM 51.8 °F - 37.4 °F 58% 29.91 in 10.0 mi SSW 17.3 mph 23.0 mph N/A   Clear